Location: Arbon
(43.0005°N, 0.7472°E)
Time: 15:57:41
(UTC+00:00)

Cosmos 2297 Rocket - Pass Details

Date: 07 August 2020
Orbit: 838 x 845 km, 71.0° (Epoch: 22 September)

Event Time Altitude Azimuth Distance (km) Brightness Sun altitude
Exits shadow 00:46:06 30° 92° (E) 1,467 3.4 -29.8°
Drops below altitude 10° 00:50:23 10° 44° (NE) 2,462 5.3 -29.7°
Sets 00:53:05 0° 34° (NE) 3,402 6.4 -29.6°
